GALAXY 15 (G-15) (28884 NORAD) Tracking and Keplerian Element Data

This shows tracking and keplerian element data for the satellite.

Feedback or suggestion? Click here.




ElementValue
Catalog28884
NameGALAXY 15 (G-15)
Epoch Orbit6667
Epoch Day12.81413701
Epoch Year2024
RAAN85.2776
Inclination1.2229
Eccentricity0.0013415
Argument of Perigee122.976
Mean Anonmoly279.9131
Mean Motion0.98937687
Decay Rate3.4E-07
L11 28884U 05041A 24012.81413701 .00000034 00000+0 00000+0 0 9999
L22 28884 1.2229 85.2776 0013415 122.9760 279.9131 0.98937687 66678



Live tracking and technical data element details for GALAXY 15 (G-15) (NORAD 28884). GALAXY 15 (G-15) can be tracked NOW for your location showing map with azimuth and elevation plus other details from your city location.







IsCatalogInMostPopularTable: catalog: 28884, numindb: 514
Update: records affected: 1



GetName: 28884 GALAXY 15 (G-15)

Hit Count: updated at: Sat, 17 May 2025 09:49:11 GMT